Regional Weather Roundup
Issued by NWS State College, PA

Home | Current Version | Previous Version | Graphics & Text | Print | Product List | Glossary Off
Versions: 1 2 3 4 5 6 7 8 9 10 11 12 13 14 15 16 17 18 19 20 21 22 23 24 25 26 27 28 29 30 31 32 33 34 35 36 37 38 39 40 41 42 43 44 45 46 47 48 49 50

000
ASUS41 KCTP 251103
RWRCTP

REGIONAL WEATHER ROUNDUP
NATIONAL WEATHER SERVICE STATE COLLEGE PA
600 AM EST SAT FEB 25 2017

Note: "fair" indicates few or no clouds below 12,000 feet with no
significant weather and/or obstructions to visibility.

* = STATION THAT DOES NOT REPORT PRECIPITATION /E.G. RAIN...SNOW...ETC/
    THUNDER OR FOG.

PAZ002>004-007>009-013>016-020>023-029>032-251200-
WESTERN PENNSYLVANIA

CITY           SKY/WX    TMP DP  RH WIND       PRES   REMARKS
ERIE           LGT RAIN  45  42  89 W14G20    29.52R FOG
MEADVILLE      LGT RAIN  51  49  92 W13       29.50F
FRANKLIN*      CLOUDY    54  50  87 S12       29.52F
NEW CASTLE     LGT RAIN  55  54  96 SW5       29.53S
BEAVER COUNTY  NOT AVBL
BUTLER*        CLOUDY    55  52  88 S9        29.56S
PITTSBURGH INT LGT RAIN  56  55  97 S8        29.53F
PITTSBURGH     LGT RAIN  56  51  84 S10       29.54F
INDIANA*       CLOUDY    59  52  77 NW6       29.60S
LATROBE        CLOUDY    59  50  72 SW9       29.59R
WASHINGTON CO* CLOUDY    55  52  88 S7        29.56F
$$

PAZ004>006-010>012-017>019-024>028-033>037-041-042-045-046-049>053-251200-
CENTRAL PENNSYLVANIA

CITY           SKY/WX    TMP DP  RH WIND       PRES   REMARKS
BRADFORD       LGT RAIN  56  49  77 SW9G18    29.58F
DUBOIS         CLOUDY    57  48  72 W5        29.57S
CLEARFIELD       N/A    N/A N/A N/A MISG      29.59R
JOHNSTOWN      CLOUDY    56  48  74 W6        29.59S
ALTOONA        PTCLDY    59  51  75 S7        29.60F
STATE COLLEGE  CLEAR     59  52  77 SW7       29.60F
WILLIAMSPORT   MOCLDY    63  56  78 SE12G18   29.61F
SELINSGROVE    MOCLDY    61  57  87 S10       29.63F
FT INDIANTOWN  CLOUDY    59  59 100 S3        29.68F
CAPITAL CITY   CLOUDY    63  56  78 VRB7      29.66F
HARRISBURG     MOCLDY    60  57  89 S9G18     29.66F
YORK           MOCLDY    60  58  92 S9        29.66F
$$

PAZ038>040-043-044-047-048-054-055-060>062-067>071-251200-
EASTERN PENNSYLVANIA

CITY           SKY/WX    TMP DP  RH WIND       PRES   REMARKS
SCRANTON       CLOUDY    62  57  83 S8G20     29.67F
MOUNT POCONO   CLOUDY    54  54 100 S14       29.73F FOG
ALLENTOWN      CLOUDY    61  54  77 S8        29.72F
QUAKERTOWN*    CLOUDY    59  55  88 SW7       29.75F
READING        PTCLDY    60  58  92 S12       29.70F
LANCASTER      CLOUDY    61  58  90 S12G21    29.70F
COATESVILLE    CLOUDY    55  55 100 SE5       29.75F
POTTSTOWN      CLOUDY    57  54  89 S3        29.75F
BLUE BELL      MOCLDY    55  55 100 S3        29.75F
DOYLESTOWN     CLOUDY    59  57  93 S5        29.75S
WILLOW GROVE   NOT AVBL
NORTH PHILA    MOCLDY    57  55  93 CALM      29.77F
PHILADELPHIA   MOCLDY    57  55  93 S3        29.77S
$$



USA.gov is the U.S. government's official web portal to all federal, state and local government web resources and services.